Location: JAPAN
(35.1974°N, 137.0216°E)
Time: 03:44:03
(UTC+09:00)

ISS - Visible Passes

Search period start: 21 January 2018 00:00
Search period end: 31 January 2018 00:00
Orbit: 402 x 407 km, 51.6° (Epoch: 21 January)

Date Brightness Start Highest point End Pass type
(mag) Time Alt. Az. Time Alt. Az. Time Alt. Az.
22 Jan -0.7 19:26:21 10° SW 19:26:32 11° SW 19:26:32 11° SW visible
23 Jan -2.6 18:34:30 10° SSW 18:36:58 28° SE 18:36:58 28° SE visible
24 Jan -1.7 17:43:29 10° SSE 17:45:15 14° SE 17:47:02 10° E visible
24 Jan -1.6 19:18:18 10° WSW 19:20:00 26° W 19:20:00 26° W visible
25 Jan -3.9 18:25:50 10° SW 18:29:05 87° SE 18:30:15 37° NE visible
26 Jan -1.5 19:10:55 10° W 19:13:04 19° NW 19:13:04 19° NW visible
27 Jan -2.5 18:17:54 10° WSW 18:20:54 34° NW 18:23:08 15° NNE visible
28 Jan -1.0 19:04:31 10° NW 19:05:28 11° NNW 19:05:47 11° NNW visible
29 Jan -1.4 18:10:38 10° WNW 18:12:51 17° NNW 18:15:04 10° NNE visible
